Wind_Speed
29 28 29 29 28 28 27 26 26 26 26 25 25 25 25 24 24 24 23 23 23 23 23 23 23 22 23 23 23 22 23 23 23 23 23 24 24 24 24 24 24 24 24
31 30 30 29 29 29 28 28 27 28 28 27 27 27 27 26 25 25 25 25 25 25 24 24 24 24 24 24 23 24 24 25 25 25 25 25 26 26 26 26 25 25 25
32 32 31 31 31 30 30 30 29 29 29 29 29 29 28 27 27 27 27 26 26 27 27 26 26 25 25 25 25 25 26 26 27 27 27 27 27 27 28 28 28 27 27
34 34 34 33 33 33 32 32 31 30 30 30 30 30 29 29 29 28 28 28 28 28 28 28 27 26 26 27 27 27 28 28 28 28 28 29 29 29 29 29 29 29 28
36 36 35 35 34 34 34 34 33 32 32 32 31 30 30 31 30 30 30 30 30 30 30 29 29 28 28 29 29 29 29 29 29 29 29 30 30 30 30 30 30 31 30
38 38 37 37 36 36 35 35 35 35 34 34 33 32 32 31 31 31 31 31 31 31 31 31 31 30 30 31 30 30 31 31 31 31 30 31 31 31 32 32 32 32 32
40 39 39 39 39 38 38 36 36 36 36 35 35 34 34 33 32 32 33 33 33 33 33 33 32 32 32 32 32 32 32 32 32 32 32 32 32 32 33 33 33 33 33
42 42 41 41 40 40 39 38 38 38 37 37 37 36 36 35 35 35 35 35 35 35 35 34 34 34 34 34 34 33 33 33 33 33 33 33 33 33 34 34 35 35 35
44 43 43 42 42 42 41 40 40 39 39 39 38 38 37 37 36 36 36 36 36 36 36 36 36 36 35 35 35 35 35 35 35 35 34 34 34 35 35 36 36 37 37
45 45 45 45 43 42 42 42 41 41 41 40 39 39 39 38 38 37 37 37 37 37 37 37 38 37 38 38 38 37 36 36 36 37 37 36 37 37 37 37 38 39 39
46 47 47 46 45 44 43 43 42 42 42 41 41 40 40 40 40 40 39 38 38 38 38 38 39 39 39 39 39 39 38 38 38 38 39 39 39 39 39 40 40 41 41
46 47 48 47 46 46 45 45 44 43 43 43 43 42 42 41 41 41 41 40 40 40 40 40 40 40 41 40 41 41 40 40 40 40 40 41 41 41 41 41 42 42 43
47 46 47 47 47 47 47 47 46 45 45 45 44 44 43 43 43 43 43 42 42 42 41 41 41 42 42 42 42 42 42 42 42 43 43 43 43 43 43 43 44 44 44
47 47 47 47 48 48 47 47 47 47 47 47 46 46 45 45 44 44 44 44 44 43 43 42 43 43 43 43 43 42 43 44 44 44 45 45 45 45 46 46 46 46 46
47 47 48 48 48 49 48 48 48 49 49 48 48 47 47 46 45 45 45 45 45 44 44 43 43 44 43 43 44 44 44 45 45 46 47 47 48 48 48 48 48 48 48
49 50 49 49 49 49 50 50 50 49 50 49 49 48 48 47 46 46 46 46 46 45 44 44 44 44 44 44 44 45 45 46 47 47 48 48 49 49 49 49 49 50 50
49 50 51 51 50 49 50 50 51 51 50 50 50 50 50 50 50 49 48 48 47 46 46 46 46 45 45 45 45 46 47 48 48 48 49 49 49 50 51 51 51 51 51
49 50 51 52 51 50 51 51 52 51 52 52 51 51 51 51 52 51 50 49 49 48 48 47 47 46 46 47 47 47 48 49 49 50 50 50 51 51 52 52 52 52 52
50 51 52 52 53 52 52 53 53 52 52 52 52 52 52 52 52 53 52 51 50 50 49 49 48 48 48 48 48 49 50 50 50 51 51 52 52 53 53 53 54 54 54
51 52 52 52 53 53 53 53 53 53 52 53 54 54 54 54 54 54 53 52 52 51 50 50 50 49 49 50 50 50 51 51 52 52 52 53 53 53 53 54 54 54 54
51 51 51 51 52 53 53 53 53 54 53 54 55 55 55 56 56 55 54 53 53 53 52 52 51 50 50 50 51 51 52 53 53 52 53 53 53 53 53 53 54 54 54
51 51 51 51 52 52 53 53 54 54 54 55 55 56 55 56 56 55 54 54 55 54 53 52 52 51 50 51 51 52 52 52 52 53 53 53 53 53 53 53 53 54 55
50 50 50 50 51 51 52 52 53 54 54 55 55 55 56 56 55 55 55 55 56 55 54 53 53 53 52 52 52 52 52 51 52 52 53 53 53 53 54 54 54 55 55
48 48 49 50 50 51 52 52 52 52 53 53 54 54 54 55 54 54 54 54 55 54 54 54 53 53 53 52 52 52 52 53 53 53 53 53 53 54 54 54 54 55 55
48 49 49 50 51 51 52 52 51 51 51 52 53 53 53 52 53 53 53 53 53 53 53 53 53 53 53 53 53 53 53 54 53 53 53 54 54 54 54 54 55 55 56
47 48 48 49 50 50 50 51 50 50 50 50 51 50 51 51 51 52 52 52 52 52 53 53 53 53 53 52 53 54 54 54 54 53 53 53 53 54 54 54 54 55 56
Wind_Direction
244 244 244 244 247 248 248 247 246 249 251 252 253 254 253 253 254 255 256 258 258 258 261 264 265 265 268 268 269 270 271 271 270 268 266 264 264 265 266 268 269 271 272
243 244 245 247 248 249 249 249 247 247 249 251 253 253 254 254 255 257 258 258 258 260 261 263 264 267 268 269 270 271 271 271 271 270 268 267 265 265 265 266 267 268 270
243 243 244 247 248 248 249 250 250 250 249 251 252 254 255 256 256 258 258 258 260 260 261 262 265 267 269 270 271 272 272 271 271 271 269 267 266 266 265 265 266 268 269
244 245 245 247 248 249 249 250 251 253 252 252 254 255 256 256 257 258 258 259 260 261 262 263 265 267 269 271 272 272 272 271 271 271 270 268 267 266 266 265 266 268 269
244 246 247 248 249 250 250 250 250 252 253 254 256 258 258 258 258 259 260 261 262 263 264 265 265 267 269 271 272 272 271 270 271 270 270 269 269 267 266 265 266 267 269
245 245 246 247 248 249 250 251 252 253 255 256 258 259 260 260 260 261 262 263 264 265 265 266 267 268 270 271 272 272 271 270 270 270 270 270 269 268 267 266 266 267 268
245 246 246 248 248 249 251 253 254 255 256 258 259 260 260 261 262 262 263 264 264 265 267 267 268 270 271 271 271 271 271 270 269 269 269 269 269 269 268 268 268 268 269
246 246 247 248 249 250 251 253 254 254 255 257 259 260 261 261 262 263 264 264 264 265 266 267 268 269 271 271 271 271 270 269 269 268 268 269 269 269 270 270 269 270 271
246 246 247 247 248 249 251 252 253 254 256 257 258 259 260 261 262 263 264 264 264 265 266 266 267 268 270 271 271 270 269 268 268 268 268 268 268 269 270 271 271 270 271
247 246 246 247 249 249 250 252 252 254 255 257 258 259 260 261 262 263 264 265 265 265 265 266 267 268 269 270 270 270 269 268 267 266 267 268 269 269 271 271 272 272 272
247 247 248 248 248 249 250 251 253 254 255 256 257 259 259 260 262 263 263 264 265 266 266 266 267 268 269 270 270 269 269 268 267 267 267 268 269 270 271 272 272 273 272
248 248 248 248 248 249 249 251 252 253 255 255 257 258 260 261 262 263 264 264 265 266 266 267 268 268 269 270 270 269 269 269 268 267 267 268 269 270 271 272 273 273 273
249 249 249 248 249 249 250 251 252 254 255 256 257 258 260 262 263 263 264 264 264 265 267 267 269 269 270 270 269 269 269 269 268 267 267 268 269 270 271 271 273 273 273
249 249 250 250 250 250 251 252 252 254 255 256 256 257 260 261 262 263 263 264 264 265 266 268 269 270 270 270 269 269 269 269 268 269 268 268 269 270 271 272 273 273 273
249 249 250 251 252 251 251 252 252 253 254 255 256 257 258 260 260 261 262 263 264 264 265 268 269 271 270 270 270 270 270 270 270 270 270 270 270 271 271 272 272 273 273
250 249 250 251 251 251 252 252 253 254 255 256 256 257 258 260 261 261 262 264 264 265 266 268 269 269 270 270 270 271 271 271 271 271 271 271 271 271 271 271 272 272 273
251 250 250 251 252 251 252 252 253 254 255 256 257 259 260 260 261 262 263 263 264 265 266 267 268 268 269 270 271 271 272 272 272 272 272 272 272 272 272 272 272 272 273
251 251 250 251 251 252 252 253 253 254 255 256 257 258 260 261 262 263 263 264 264 265 266 267 268 269 270 270 271 271 272 272 272 272 272 272 272 272 272 271 271 272 273
251 252 252 252 252 253 253 253 253 255 255 256 257 259 260 261 262 262 262 263 264 265 266 267 267 268 270 271 271 272 273 273 272 272 272 273 273 273 272 272 272 272 273
252 252 253 254 254 254 254 254 254 254 256 257 258 260 260 261 262 262 262 263 264 265 265 266 267 268 269 270 272 272 273 273 273 272 272 273 273 273 272 272 272 272 273
254 253 254 255 255 254 254 254 254 256 257 259 260 260 260 261 261 262 263 263 263 264 265 266 267 268 270 270 272 273 274 274 273 273 273 273 274 273 273 273 273 273 273
255 254 254 254 254 254 254 255 255 256 257 259 260 260 260 260 260 261 262 262 263 264 265 266 267 268 270 271 273 273 274 274 274 273 273 274 274 274 274 274 274 274 274
256 255 254 254 254 255 255 255 255 256 257 258 258 259 260 261 260 260 260 261 262 264 265 266 267 268 270 271 272 273 274 275 274 273 273 274 274 275 275 274 274 275 275
255 254 254 254 254 255 256 256 256 257 258 258 259 260 260 261 260 260 260 261 262 263 264 265 266 268 269 271 272 273 273 274 274 274 274 274 274 275 275 276 276 276 276
255 254 254 255 255 256 256 256 256 257 257 259 259 259 260 260 260 260 261 261 261 262 263 265 267 268 269 271 272 273 274 274 274 274 274 274 274 274 275 276 276 276 276
255 254 254 255 256 257 257 256 256 257 258 259 259 259 259 260 260 260 260 261 261 261 263 265 267 268 269 270 272 273 273 274 274 274 275 275 275 274 275 276 276 276 276
Height
5783 5786 5788 5790 5793 5795 5797 5798 5800 5802 5803 5805 5807 5808 5810 5811 5812 5813 5814 5816 5817 5818 5818 5819 5820 5820 5821 5821 5822 5822 5822 5823 5823 5824 5824 5825 5826 5827 5827 5828 5828 5829 5829
5777 5780 5782 5784 5787 5789 5791 5792 5794 5796 5798 5799 5801 5802 5803 5805 5806 5807 5809 5810 5811 5812 5813 5814 5814 5815 5815 5816 5816 5816 5817 5817 5818 5818 5819 5819 5820 5821 5821 5822 5822 5823 5823
5770 5773 5776 5778 5780 5783 5785 5786 5788 5789 5791 5793 5794 5796 5797 5799 5800 5802 5803 5804 5805 5806 5807 5808 5808 5809 5809 5810 5810 5811 5811 5811 5812 5812 5812 5813 5814 5814 5815 5816 5816 5817 5817
5763 5766 5769 5771 5774 5776 5778 5780 5782 5783 5785 5786 5788 5790 5791 5792 5794 5795 5797 5798 5799 5800 5801 5802 5802 5803 5803 5804 5804 5804 5805 5805 5805 5806 5806 5806 5807 5807 5808 5809 5809 5810 5810
5755 5758 5761 5763 5766 5768 5771 5773 5775 5776 5778 5779 5781 5783 5784 5786 5787 5788 5790 5791 5792 5793 5794 5795 5796 5796 5797 5797 5797 5797 5798 5798 5799 5799 5799 5800 5800 5800 5801 5801 5802 5802 5803
5747 5750 5753 5755 5758 5760 5762 5764 5766 5768 5770 5772 5773 5775 5777 5778 5780 5781 5782 5784 5785 5786 5787 5788 5788 5789 5789 5790 5790 5790 5790 5791 5791 5792 5792 5792 5793 5793 5794 5794 5794 5795 5795
5738 5741 5744 5747 5749 5752 5754 5756 5758 5760 5762 5764 5766 5767 5769 5770 5772 5773 5775 5776 5777 5778 5779 5780 5781 5781 5782 5782 5782 5783 5783 5783 5783 5784 5784 5785 5785 5785 5786 5786 5786 5787 5787
5729 5732 5735 5738 5740 5743 5745 5748 5750 5752 5754 5755 5757 5759 5761 5763 5764 5765 5766 5767 5768 5770 5771 5771 5772 5773 5774 5774 5774 5774 5775 5775 5775 5776 5776 5777 5777 5777 5777 5778 5778 5778 5779
5719 5722 5725 5728 5731 5733 5736 5738 5741 5743 5745 5747 5748 5750 5752 5754 5755 5757 5758 5758 5760 5761 5762 5763 5763 5764 5765 5765 5765 5766 5766 5766 5767 5767 5768 5768 5768 5768 5769 5769 5769 5769 5769
5709 5712 5715 5718 5721 5723 5726 5729 5731 5733 5735 5737 5739 5741 5743 5744 5746 5748 5749 5749 5750 5751 5752 5753 5754 5755 5756 5756 5756 5757 5757 5757 5758 5758 5758 5759 5759 5759 5759 5759 5760 5760 5760
5698 5701 5704 5707 5710 5713 5716 5718 5721 5723 5726 5728 5729 5731 5732 5734 5736 5738 5739 5740 5741 5742 5742 5743 5744 5745 5746 5746 5747 5747 5747 5748 5748 5748 5748 5749 5749 5749 5749 5749 5750 5750 5749
5687 5690 5693 5696 5699 5702 5705 5708 5710 5713 5715 5717 5719 5721 5722 5724 5726 5727 5729 5730 5731 5732 5732 5733 5734 5735 5736 5736 5736 5737 5737 5737 5738 5738 5738 5738 5738 5739 5739 5739 5739 5739 5739
5676 5679 5682 5685 5688 5691 5694 5697 5699 5702 5704 5706 5708 5710 5712 5713 5715 5716 5717 5719 5720 5721 5722 5722 5723 5724 5725 5725 5725 5726 5726 5727 5727 5727 5727 5727 5727 5727 5728 5728 5728 5727 5727
5665 5668 5670 5673 5676 5679 5682 5685 5688 5690 5693 5695 5697 5699 5701 5702 5703 5705 5706 5708 5709 5710 5711 5712 5712 5713 5713 5713 5714 5714 5715 5715 5715 5715 5715 5715 5715 5716 5716 5716 5716 5716 5715
5652 5655 5658 5661 5664 5667 5670 5673 5676 5678 5681 5683 5685 5687 5689 5691 5692 5693 5695 5696 5698 5699 5700 5701 5701 5701 5701 5701 5702 5702 5703 5703 5703 5703 5703 5703 5703 5703 5703 5703 5703 5703 5703
5640 5643 5646 5649 5651 5654 5657 5660 5663 5666 5668 5671 5673 5675 5677 5679 5680 5681 5682 5684 5685 5686 5688 5689 5689 5689 5689 5689 5689 5690 5690 5690 5690 5690 5690 5689 5689 5689 5689 5689 5690 5689 5689
5627 5630 5633 5636 5638 5641 5644 5647 5650 5653 5655 5658 5660 5662 5664 5666 5667 5669 5670 5671 5672 5674 5675 5677 5677 5677 5677 5677 5677 5677 5677 5677 5677 5677 5676 5676 5676 5676 5675 5675 5676 5676 5675
5614 5617 5620 5622 5625 5628 5631 5633 5636 5639 5642 5644 5647 5649 5651 5652 5654 5656 5657 5658 5659 5661 5662 5664 5664 5664 5664 5664 5664 5664 5664 5664 5664 5664 5663 5662 5662 5661 5661 5661 5661 5661 5661
5601 5603 5606 5609 5611 5614 5617 5619 5622 5625 5628 5630 5633 5635 5637 5639 5640 5642 5643 5645 5646 5647 5649 5650 5651 5651 5651 5651 5651 5651 5650 5650 5650 5650 5649 5648 5647 5647 5646 5646 5646 5646 5646
5587 5589 5592 5594 5597 5600 5603 5605 5608 5611 5614 5616 5619 5621 5623 5625 5626 5628 5629 5631 5632 5633 5635 5636 5637 5638 5638 5637 5637 5637 5637 5636 5636 5635 5635 5634 5633 5632 5632 5631 5631 5631 5631
5572 5575 5577 5580 5582 5585 5588 5591 5593 5596 5599 5601 5603 5605 5608 5610 5611 5613 5615 5616 5618 5619 5620 5622 5623 5624 5623 5623 5623 5623 5622 5622 5621 5620 5620 5619 5619 5618 5617 5616 5616 5615 5615
5558 5560 5563 5566 5568 5570 5573 5576 5579 5581 5584 5586 5588 5590 5592 5594 5596 5598 5599 5601 5603 5604 5606 5607 5608 5609 5609 5609 5609 5608 5608 5607 5607 5607 5605 5605 5604 5603 5602 5601 5600 5600 5599
5544 5546 5549 5552 5554 5556 5559 5561 5564 5567 5569 5571 5573 5575 5576 5578 5580 5582 5584 5586 5587 5589 5591 5592 5593 5594 5594 5594 5594 5594 5593 5592 5592 5591 5590 5590 5588 5588 5587 5586 5585 5584 5583
5530 5533 5535 5538 5540 5542 5544 5547 5549 5551 5554 5555 5558 5560 5562 5563 5564 5566 5569 5570 5572 5574 5575 5577 5578 5578 5578 5578 5578 5578 5578 5577 5577 5576 5575 5575 5574 5573 5571 5570 5569 5568 5567
5516 5519 5521 5524 5526 5528 5530 5532 5534 5537 5539 5541 5543 5545 5547 5548 5550 5551 5554 5556 5557 5559 5560 5561 5562 5562 5563 5563 5562 5562 5562 5562 5562 5561 5559 5559 5559 5557 5556 5555 5553 5552 5551
5503 5505 5508 5510 5512 5514 5516 5518 5520 5523 5525 5528 5529 5531 5532 5534 5534 5536 5538 5540 5542 5544 5545 5546 5547 5547 5548 5547 5547 5547 5547 5547 5546 5546 5545 5544 5543 5541 5541 5540 5538 5536 5535